Terug naar catalogus

GLOBALSTAR M039

ActiefCommunicatieLEO
NORAD 25961·PAYLOAD·🇺🇸 United States

Gelanceerd Nov 22, 1999 vanaf Baikonur Cosmodrome

Loading…

Volgende Passages (komende 24 uur)

TLE

VersSource: Space-Track

Epoch: Sep 14, 2026, 13:48 UTC

1 25961U 99062A   26257.57553110 -.00000058  00000-0  25759-3 0  9993
2 25961  51.9863 324.7032 0002336 270.8967  89.1632 12.62351174237600

Volg GLOBALSTAR M039 in realtime met AllMySat

Download on the App Store